| time (UTC) | temp F | wind direction | speed MPH | gust MPH | rain 1hr in | rain 24hr in | rain mn in | humidity % | barometer mb |
| 20260507111841 | 69 | 0.0 | 0.0 | 0.00 | 0.00 | 0.00 | 99 | 1012.2 | |
| 20260507104840 | 70 | 0.0 | 0.0 | 0.00 | 0.00 | 0.00 | 99 | 1012.1 | |
| 20260507101840 | 69 | 0.0 | 0.0 | 0.00 | 0.00 | 0.00 | 99 | 1012.3 | |
| 20260507094840 | 67 | 0.0 | 0.0 | 0.00 | 0.00 | 0.00 | 99 | 999.4 | |
| 20260507091839 | 67 | 0.0 | 0.0 | 0.00 | 0.00 | 0.00 | 99 | 1011.8 | |
| 20260507084839 | 67 | 0.0 | 0.0 | 0.00 | 0.00 | 0.00 | 99 | 1001.2 | |
| 20260507081839 | 65 | 0.0 | 0.0 | 0.00 | 0.00 | 0.00 | 99 | 1011.4 | |
| 20260507074838 | 64 | 0.0 | 0.0 | 0.00 | 0.00 | 0.00 | 99 | 1011.3 | |
| 20260507071838 | 63 | 0.0 | 0.0 | 0.00 | 0.00 | 0.00 | 99 | 1011.5 | |
| 20260507064838 | 62 | 0.0 | 0.0 | 0.00 | 0.00 | 0.00 | 99 | 1011.1 | |
| 20260507061837 | 62 | 0.0 | 0.0 | 0.00 | 0.00 | 0.00 | 99 | 1010.9 | |
| 20260507054837 | 61 | 0.0 | 0.0 | 0.00 | 0.00 | 0.00 | 99 | 1010.8 | |
| 20260507051837 | 58 | 0.0 | 0.0 | 0.00 | 0.00 | 0.00 | 99 | 1010.5 | |
| 20260507044836 | 57 | 0.0 | 0.0 | 0.00 | 0.00 | 0.00 | 99 | 1010.2 | |
| 20260507041836 | 57 | 0.0 | 0.0 | 0.00 | 0.00 | 0.00 | 99 | 1010.2 | |
| 20260507034836 | 56 | 0.0 | 0.0 | 0.00 | 0.00 | 0.00 | 99 | 1010.0 | |
| 20260507031835 | 57 | 0.0 | 0.0 | 0.00 | 0.00 | 0.00 | 99 | 1010.0 | |
| 20260507025325 | 57 | 0.0 | 0.0 | 0.00 | 0.00 | 0.00 | 99 | 1009.9 | |
| 20260507022325 | 57 | 0.0 | 0.0 | 0.00 | 0.00 | 0.00 | 99 | 1007.7 | |
| 20260507015325 | 57 | 0.0 | 0.0 | 0.00 | 0.00 | 0.00 | 99 | 1009.6 | |
| 20260507012324 | 57 | 0.0 | 0.0 | 0.00 | 0.00 | 0.00 | 99 | 1009.4 | |
| 20260507005324 | 58 | 0.0 | 0.0 | 0.00 | 0.00 | 0.00 | 99 | 1009.6 | |
| 20260507002324 | 58 | 0.0 | 0.0 | 0.00 | 0.00 | 0.00 | 99 | 1009.6 | |
| 20260507001113 | 0 | 0.0 | 0.0 | 0.00 | 0.00 | 0.00 | 99 | ||
| 20260506234112 | 0 | 0.0 | 0.0 | 0.00 | 0.00 | 0.00 | 99 | ||
| 20260506231112 | 0 | 0.0 | 0.0 | 0.00 | 0.00 | 0.00 | 99 | ||
| 20260506224112 | 0 | 0.0 | 0.0 | 0.00 | 0.00 | 0.00 | 99 | ||
| 20260506221112 | 0 | 0.0 | 0.0 | 0.00 | 0.00 | 0.00 | 99 | ||
| 20260506214111 | 0 | 0.0 | 0.0 | 0.00 | 0.00 | 0.00 | 99 | ||
| 20260506211111 | 0 | 0.0 | 0.0 | 0.00 | 0.00 | 0.00 | 99 | ||
| 20260506204111 | 0 | 0.0 | 0.0 | 0.00 | 0.00 | 0.00 | 99 | ||
| 20260506201110 | 0 | 0.0 | 0.0 | 0.00 | 0.00 | 0.00 | 99 | ||
| 20260506194110 | 0 | 0.0 | 0.0 | 0.00 | 0.00 | 0.00 | 99 | ||
| 20260506191109 | 0 | 0.0 | 0.0 | 0.00 | 0.00 | 0.00 | 99 | ||
| 20260506184110 | 0 | 0.0 | 0.0 | 0.00 | 0.00 | 0.00 | 99 | ||
| 20260506181109 | 0 | 0.0 | 0.0 | 0.00 | 0.00 | 0.00 | |||
| 20260506180613 | 0 | 0.0 | 0.0 | 0.00 | 0.00 | 0.00 | |||
| 20260506173613 | 0 | 0.0 | 0.0 | 0.00 | 0.00 | 0.00 | |||
| 20260506170613 | 0 | 0.0 | 0.0 | 0.00 | 0.00 | 0.00 | |||
| 20260506163612 | 0 | 0.0 | 0.0 | 0.00 | 0.00 | 0.00 | |||
| 20260506163406 | 63 | 0.0 | 0.0 | 0.00 | 0.00 | 0.00 | 99 | ||
| 20260506160402 | 63 | 0.0 | 0.0 | 0.00 | 0.00 | 0.00 | 99 | 1006.0 | |
| 20260506153357 | 62 | 0.0 | 0.0 | 0.00 | 0.00 | 0.00 | 99 | ||
| 20260506150252 | 63 | 0.0 | 0.0 | 0.00 | 0.00 | 0.00 | 99 | ||
| 20260506143251 | 62 | 0.0 | 0.0 | 0.00 | 0.00 | 0.00 | 99 | 1006.2 | |
| 20260506140230 | 62 | 0.0 | 0.0 | 0.00 | 0.00 | 0.00 | 99 | 1005.7 | |
| 20260506133230 | 62 | 0.0 | 0.0 | 0.00 | 0.00 | 0.00 | 99 | 983.9 | |
| 20260506130229 | 64 | 0.0 | 0.0 | 0.00 | 0.00 | 0.00 | 99 | 1006.3 | |
| 20260506123229 | 65 | 0.0 | 0.0 | 0.00 | 0.00 | 0.00 | 99 | 1006.3 | |
| 20260506120229 | 63 | 0.0 | 0.0 | 0.00 | 0.00 | 0.00 | 99 | ||
| 20260506113228 | 62 | 0.0 | 0.0 | 0.00 | 0.00 | 0.00 | 99 | 1006.2 |